KG7QQL Weather Reports


time (UTC)temp
F
wind
direction
speed
knots
gust
knots
rain 1hr
in
rain 24hr
in
rain mn
in
humidity
%
barometer
mb
20260507120038 50 102 0.9 1.7 0.00 0.00 0.00 93
20260507115534 50 76 0.9 2.6 0.00 0.00 0.00 93
20260507115030 50 74 0.0 1.7 0.00 0.00 0.00 93
20260507114526 50 66 0.0 1.7 0.00 0.00 0.00 93
20260507114024 50 135 0.0 1.7 0.00 0.00 0.00 93
20260507113521 50 80 0.0 1.7 0.00 0.00 0.00 92
20260507113018 50 77 1.7 2.6 0.00 0.00 0.00 91
20260507112516 50 98 0.0 5.2 0.00 0.00 0.00 91
20260507112012 50 98 1.7 3.5 0.00 0.00 0.00 91
20260507111510 50 116 2.6 5.2 0.00 0.00 0.00 91
20260507111005 51 121 1.7 4.3 0.00 0.00 0.00 91
20260507110502 51 101 1.7 5.2 0.00 0.00 0.00 90
20260507105958 51 115 3.5 4.3 0.00 0.00 0.00 90
20260507105455 51 120 2.6 4.3 0.00 0.00 0.00 90
20260507104952 51 85 1.7 4.3 0.00 0.00 0.00 89
20260507104449 51 89 1.7 3.5 0.00 0.00 0.00 89
20260507103944 52 120 0.0 6.1 0.00 0.00 0.00 89
20260507103442 52 95 2.6 6.1 0.00 0.00 0.00 89
20260507102938 52 106 3.5 5.2 0.00 0.00 0.00 89
20260507102435 52 117 1.7 4.3 0.00 0.00 0.00 89
20260507101931 52 94 0.0 5.2 0.00 0.00 0.00 89
20260507101426 52 112 3.5 5.2 0.00 0.00 0.00 89
20260507100923 52 95 3.5 6.1 0.00 0.00 0.00 89
20260507100421 52 81 2.6 3.5 0.00 0.00 0.00 89
20260507095919 52 98 2.6 4.3 0.00 0.00 0.00 89
20260507095415 52 88 3.5 4.3 0.00 0.00 0.00 90
20260507094913 52 110 2.6 4.3 0.00 0.00 0.00 90
20260507094409 52 101 2.6 4.3 0.00 0.00 0.00 90
20260507093906 52 100 0.9 3.5 0.00 0.00 0.00 90
20260507093404 52 95 1.7 3.5 0.00 0.00 0.00 90
20260507092902 52 92 2.6 5.2 0.00 0.00 0.00 91
20260507092358 52 95 2.6 4.3 0.00 0.00 0.00 91
20260507091854 52 99 1.7 3.5 0.00 0.00 0.00 91
20260507091351 52 100 0.9 3.5 0.00 0.00 0.00 91
20260507090847 52 97 0.9 4.3 0.00 0.00 0.00 91
20260507090343 52 106 3.5 6.1 0.00 0.00 0.00 91
20260507085840 52 234 0.9 1.7 0.00 0.00 0.00 91
20260507085337 52 107 1.7 3.5 0.00 0.00 0.00 91
20260507084834 52 101 1.7 2.6 0.00 0.00 0.00 91
20260507084330 52 208 1.7 5.2 0.00 0.00 0.00 91
20260507083828 52 81 0.9 4.3 0.00 0.00 0.00 92
20260507083324 52 60 1.7 3.5 0.00 0.00 0.00 92
20260507082821 52 206 0.9 6.1 0.00 0.00 0.00 92
20260507082316 52 231 0.9 5.2 0.00 0.00 0.00 92
20260507081814 52 109 1.7 6.1 0.00 0.00 0.00 93
20260507081309 52 96 0.0 3.5 0.00 0.00 0.00 93
20260507080806 52 115 7.8 11.3 0.00 0.00 0.00 93
20260507080303 52 154 0.0 7.8 0.00 0.00 0.00 93
20260507075758 52 105 3.5 5.2 0.00 0.00 0.00 93
20260507075254 52 112 5.2 6.1 0.00 0.00 0.00 93
20260507074751 52 104 2.6 5.2 0.00 0.00 0.00 93
20260507074249 52 115 2.6 6.1 0.00 0.00 0.00 93
20260507073746 52 117 2.6 7.0 0.00 0.00 0.00 93
20260507073242 52 112 1.7 9.6 0.00 0.00 0.00 93
20260507072740 52 108 2.6 9.6 0.00 0.00 0.00 93
20260507072237 52 107 0.0 4.3 0.00 0.00 0.00 93
20260507071734 53 106 0.9 6.1 0.00 0.00 0.00 93
20260507071230 53 70 1.7 3.5 0.00 0.00 0.00 93
20260507070728 53 103 5.2 6.1 0.00 0.00 0.00 93
20260507070225 53 200 0.9 4.3 0.00 0.00 0.00 93
20260507065721 53 106 2.6 5.2 0.00 0.00 0.00 93
20260507065218 53 108 3.5 7.0 0.00 0.00 0.00 93
20260507064715 53 89 1.7 5.2 0.00 0.00 0.00 92
20260507064215 53 76 0.9 4.3 0.00 0.00 0.00 92
20260507063711 53 109 2.6 6.1 0.00 0.00 0.00 92
20260507063207 53 88 1.7 4.3 0.00 0.00 0.00 92
20260507062705 53 94 1.7 2.6 0.00 0.00 0.00 92
20260507062202 53 89 0.0 6.1 0.00 0.00 0.00 92
20260507061700 53 102 5.2 6.1 0.00 0.00 0.00 92
20260507061158 53 82 0.9 4.3 0.00 0.00 0.00 92
20260507060655 53 84 3.5 6.1 0.00 0.00 0.00 92
20260507060151 53 118 1.7 3.5 0.00 0.00 0.00 92
20260507055648 53 89 1.7 4.3 0.00 0.00 0.00 91
20260507055144 53 108 4.3 4.3 0.00 0.00 0.00 91
20260507054640 53 101 5.2 5.2 0.00 0.00 0.00 91
20260507054137 53 111 2.6 5.2 0.00 0.00 0.00 91
20260507053635 53 35 0.9 6.1 0.00 0.00 0.00 91
20260507053132 54 70 2.6 5.2 0.00 0.00 0.00 90
20260507052631 54 107 2.6 8.7 0.00 0.00 0.00 90
20260507052126 54 108 4.3 7.0 0.00 0.00 0.00 89
20260507051624 54 89 2.6 3.5 0.00 0.00 0.00 89
20260507051121 54 107 0.0 5.2 0.00 0.00 0.00 89
20260507050618 54 94 2.6 8.7 0.00 0.00 0.00 88
20260507050114 54 86 3.5 7.8 0.00 0.00 0.00 88
20260507045611 54 95 2.6 7.8 0.00 0.00 0.00 88
20260507045108 54 157 0.9 8.7 0.00 0.00 0.00 88
20260507044605 54 66 0.0 4.3 0.00 0.00 0.00 88
20260507044102 54 106 2.6 6.1 0.00 0.00 0.00 87
20260507043557 55 97 2.6 5.2 0.00 0.00 0.00 87
20260507043055 55 97 0.9 6.1 0.00 0.00 0.00 87
20260507042551 55 100 2.6 4.3 0.00 0.00 0.00 87
20260507042046 55 110 4.3 7.0 0.00 0.00 0.00 87
20260507041543 55 96 5.2 7.8 0.00 0.00 0.00 86
20260507041041 55 108 3.5 4.3 0.00 0.00 0.00 86
20260507040537 55 80 2.6 5.2 0.00 0.00 0.00 86
20260507040033 55 75 1.7 8.7 0.00 0.00 0.00 86
20260507035529 55 86 0.9 1.7 0.00 0.00 0.00 86
20260507035026 55 124 1.7 2.6 0.00 0.00 0.00 86
20260507034523 55 89 0.0 5.2 0.00 0.00 0.00 85
20260507034021 56 87 0.9 1.7 0.00 0.00 0.00 85
20260507033518 56 92 2.6 4.3 0.00 0.00 0.00 84
20260507033015 56 211 1.7 4.3 0.00 0.00 0.00 84
20260507032512 56 113 0.0 5.2 0.00 0.00 0.00 84
20260507032008 56 107 1.7 3.5 0.00 0.00 0.00 84
20260507031505 56 111 1.7 7.0 0.00 0.00 0.00 84
20260507031003 56 110 0.0 2.6 0.00 0.00 0.00 84
20260507030459 56 101 2.6 5.2 0.00 0.00 0.00 83
20260507025956 56 157 0.0 2.6 0.00 0.00 0.00 83
20260507025453 56 102 2.6 5.2 0.00 0.00 0.00 83
20260507024951 56 107 1.7 4.3 0.00 0.00 0.00 83
20260507024448 56 105 1.7 3.5 0.00 0.00 0.00 83
20260507023944 56 136 0.0 3.5 0.00 0.00 0.00 83
20260507023441 56 126 0.0 7.0 0.00 0.00 0.00 82
20260507022938 57 54 0.9 3.5 0.00 0.00 0.00 83
20260507022436 57 128 1.7 6.1 0.00 0.00 0.00 82
20260507021930 57 110 2.6 5.2 0.00 0.00 0.00 82
20260507021426 57 88 1.7 3.5 0.00 0.00 0.00 82
20260507020924 57 93 1.7 4.3 0.00 0.00 0.00 82
20260507020420 57 97 1.7 4.3 0.00 0.00 0.00 82
20260507015918 57 42 0.0 3.5 0.00 0.00 0.00 82
20260507015416 57 106 2.6 7.0 0.00 0.00 0.00 82
20260507014913 57 109 2.6 6.1 0.00 0.00 0.00 82
20260507014409 57 105 3.5 5.2 0.00 0.00 0.00 82
20260507013905 57 185 0.9 5.2 0.00 0.00 0.00 82
20260507013402 57 117 2.6 7.0 0.00 0.00 0.00 82
20260507012900 57 114 4.3 7.0 0.00 0.00 0.00 82
20260507012355 57 101 4.3 9.6 0.00 0.00 0.00 81
20260507011847 57 107 1.7 4.3 0.00 0.00 0.00 82
20260507011344 57 113 6.1 9.6 0.00 0.00 0.00 82
20260507010838 57 113 7.8 8.7 0.00 0.00 0.00 82
20260507010334 57 100 2.6 6.1 0.00 0.00 0.00 81
20260507005831 57 114 4.3 7.0 0.00 0.00 0.00 81
20260507005328 57 107 4.3 9.6 0.00 0.00 0.00 81
20260507004825 57 113 2.6 4.3 0.00 0.00 0.00 81
20260507004322 57 134 0.0 5.2 0.00 0.00 0.00 81
20260507003819 57 92 1.7 4.3 0.00 0.00 0.00 82
20260507003314 57 97 3.5 7.0 0.00 0.00 0.00 81
20260507002809 57 119 1.7 3.5 0.00 0.00 0.00 81
20260507002306 57 127 5.2 9.6 0.00 0.00 0.00 81
20260507001803 57 111 1.7 5.2 0.00 0.00 0.00 81
20260507001300 57 80 0.0 8.7 0.00 0.00 0.00 81
20260507000756 57 132 0.0 7.8 0.00 0.00 0.00 81
20260507000252 57 114 2.6 7.0 0.00 0.00 0.00 81
20260506235749 57 111 3.5 9.6 0.00 0.00 0.00 81
20260506235244 57 105 1.7 6.1 0.00 0.00 0.00 80
20260506234742 57 121 4.3 7.0 0.00 0.00 0.00 80
20260506234239 57 136 0.9 4.3 0.00 0.00 0.00 81
20260506233736 57 103 1.7 6.1 0.00 0.00 0.00 80
20260506233233 57 140 2.6 2.6 0.00 0.00 0.00 80
20260506232730 57 238 0.0 4.3 0.00 0.00 0.00 81
20260506232224 57 128 1.7 4.3 0.00 0.00 0.00 81
20260506231722 57 165 0.9 7.8 0.00 0.00 0.00 81
20260506231220 57 136 2.6 7.0 0.00 0.00 0.00 81
20260506230716 57 115 3.5 5.2 0.00 0.00 0.00 80
20260506230214 57 110 0.0 4.3 0.00 0.00 0.00 81
20260506225710 57 158 1.7 7.0 0.00 0.00 0.00 81
20260506225207 57 121 4.3 7.8 0.00 0.00 0.00 80
20260506224703 57 130 0.9 7.0 0.00 0.00 0.00 81
20260506224201 57 132 0.9 5.2 0.00 0.00 0.00 80
20260506223656 57 230 1.7 7.8 0.00 0.00 0.00 80
20260506223152 57 10 0.0 3.5 0.00 0.00 0.00 80
20260506222650 57 142 1.7 4.3 0.00 0.00 0.00 80
20260506222145 57 122 0.9 5.2 0.00 0.00 0.00 80
20260506221644 57 111 5.2 7.8 0.00 0.00 0.00 79
20260506221142 57 224 2.6 3.5 0.00 0.00 0.00 79
20260506220638 57 81 0.0 5.2 0.00 0.00 0.00 79
20260506220133 57 48 1.7 7.8 0.00 0.00 0.00 78
20260506215630 57 74 2.6 7.0 0.00 0.00 0.00 79
20260506215125 57 123 0.9 4.3 0.00 0.00 0.00 78
20260506214622 57 77 0.0 4.3 0.00 0.00 0.00 78
20260506214120 57 117 5.2 7.8 0.00 0.00 0.00 77
20260506213618 57 122 4.3 7.0 0.00 0.00 0.00 77
20260506213115 57 107 4.3 7.8 0.00 0.00 0.00 77
20260506212612 57 108 4.3 9.6 0.00 0.00 0.00 77
20260506212107 58 78 1.7 2.6 0.00 0.00 0.00 77
20260506211603 58 64 0.9 5.2 0.00 0.00 0.00 76
20260506211100 58 146 1.7 2.6 0.00 0.00 0.00 76
20260506210556 58 147 1.7 6.1 0.00 0.00 0.00 77
20260506210053 58 162 1.7 7.8 0.00 0.00 0.00 77
20260506205550 59 127 2.6 7.8 0.00 0.00 0.00 75
20260506205045 59 100 3.5 7.8 0.00 0.00 0.00 74
20260506204543 59 7 2.6 9.6 0.00 0.00 0.00 75
20260506204040 59 89 2.6 5.2 0.00 0.00 0.00 76
20260506203538 59 111 2.6 4.3 0.00 0.00 0.00 77
20260506203035 58 182 0.9 5.2 0.00 0.00 0.00 77
20260506202532 58 202 1.7 7.8 0.00 0.00 0.00 78
20260506202028 58 78 0.0 7.8 0.00 0.00 0.00 77
20260506201526 59 118 3.5 7.0 0.00 0.00 0.00 76
20260506201022 58 80 1.7 3.5 0.00 0.00 0.00 79
20260506200518 57 136 1.7 6.1 0.00 0.00 0.00 79
20260506200015 57 105 2.6 7.0 0.00 0.00 0.00 78
20260506195512 58 158 0.9 4.3 0.00 0.00 0.00 79
20260506195009 57 163 1.7 4.3 0.00 0.00 0.00 80
20260506194506 57 73 1.7 7.8 0.00 0.00 0.00 82
20260506194002 56 106 2.6 9.6 0.00 0.00 0.00 81
20260506193500 56 128 1.7 11.3 0.00 0.00 0.00 81
20260506192956 57 50 0.9 6.1 0.00 0.00 0.00 82
20260506192454 56 101 0.9 9.6 0.00 0.00 0.00 82
20260506191949 56 164 0.0 6.1 0.00 0.00 0.00 82
20260506191447 56 111 2.6 5.2 0.00 0.00 0.00 83
20260506190943 56 104 0.0 5.2 0.00 0.00 0.00 84
20260506190440 55 80 2.6 7.0 0.00 0.00 0.00 84
20260506185937 55 113 2.6 8.7 0.00 0.00 0.00 84
20260506185434 55 108 5.2 7.8 0.00 0.00 0.00 84
20260506184931 55 98 6.1 9.6 0.00 0.00 0.00 83
20260506184427 56 105 5.2 11.3 0.00 0.00 0.00 84
20260506183925 56 105 1.7 6.1 0.00 0.00 0.00 85
20260506183420 55 102 5.2 7.0 0.00 0.00 0.00 86
20260506182918 55 119 3.5 7.0 0.00 0.00 0.00 86
20260506182415 55 222 2.6 6.1 0.00 0.00 0.00 87
20260506181913 55 113 7.8 9.6 0.00 0.00 0.00 87
20260506181410 55 109 5.2 7.8 0.00 0.00 0.00 88
20260506180907 55 114 5.2 9.6 0.00 0.00 0.00 88
20260506180402 55 89 0.0 9.6 0.00 0.00 0.00 89
20260506175900 55 116 7.0 8.7 0.00 0.00 0.00 89
20260506175356 55 59 0.0 4.3 0.00 0.00 0.00 90
20260506174853 55 100 2.6 3.5 0.00 0.00 0.00 91
20260506174351 54 113 2.6 9.6 0.00 0.00 0.00 90
20260506173848 55 119 2.6 7.0 0.00 0.00 0.00 91
20260506173344 54 111 3.5 10.4 0.00 0.00 0.00 92
20260506172842 54 115 5.2 9.6 0.00 0.00 0.00 93
20260506172338 54 109 3.5 7.0 0.00 0.00 0.00 93
20260506171836 53 97 5.2 7.8 0.00 0.00 0.00 93
20260506171333 53 122 4.3 10.4 0.00 0.00 0.00 94
20260506170831 53 110 9.6 9.6 0.00 0.00 0.00 93
20260506170326 53 88 3.5 7.0 0.00 0.00 0.00 93
20260506165825 53 176 2.6 6.1 0.00 0.00 0.00 93
20260506165323 53 109 6.1 8.7 0.00 0.00 0.00 92
20260506164819 53 103 2.6 7.0 0.00 0.00 0.00 92
20260506164316 54 160 1.7 4.3 0.00 0.00 0.00 93
20260506163813 53 112 1.7 7.8 0.00 0.00 0.00 93
20260506163308 53 91 2.6 6.1 0.00 0.00 0.00 93
20260506162803 53 161 1.7 4.3 0.00 0.00 0.00 94
20260506162301 53 104 2.6 7.0 0.00 0.00 0.00 94
20260506161753 53 123 1.7 6.1 0.00 0.00 0.00 95
20260506161250 53 116 6.1 8.7 0.00 0.00 0.00 95
20260506160747 53 107 3.5 7.8 0.00 0.00 0.00 96
20260506160244 53 105 3.5 10.4 0.00 0.00 0.00 97
20260506155744 53 107 3.5 7.8 0.00 0.00 0.00 97
20260506155240 53 80 2.6 8.7 0.00 0.00 0.00 98
20260506153353 52 93 2.6 6.1 0.00 0.00 0.00 98
20260506152850 52 89 0.9 5.2 0.00 0.00 0.00 98
20260506152347 52 242 2.6 4.3 0.00 0.00 0.00 98
20260506151845 52 75 0.0 2.6 0.00 0.00 0.00 98
20260506151342 52 209 2.6 6.1 0.00 0.00 0.00 98
20260506150839 52 129 1.7 4.3 0.00 0.00 0.00 98
20260506150336 52 141 0.0 3.5 0.00 0.00 0.00 98
20260506145832 52 96 1.7 4.3 0.00 0.00 0.00 98
20260506145329 52 102 2.6 7.8 0.00 0.00 0.00 98
20260506144826 52 110 3.5 6.1 0.00 0.00 0.00 98
20260506144323 52 93 2.6 7.0 0.00 0.00 0.00 98
20260506143821 52 99 2.6 7.8 0.00 0.00 0.00 98
20260506143318 52 111 2.6 9.6 0.00 0.00 0.00 98
20260506142816 52 110 2.6 5.2 0.00 0.00 0.00 97
20260506142314 52 94 2.6 3.5 0.00 0.00 0.00 97
20260506141812 52 94 3.5 5.2 0.00 0.00 0.00 97
20260506141310 52 87 1.7 5.2 0.00 0.00 0.00 97
20260506140807 52 172 0.9 6.1 0.00 0.00 0.00 97
20260506140304 52 143 0.0 2.6 0.00 0.00 0.00 97
20260506135801 52 108 2.6 2.6 0.00 0.00 0.00 96
20260506135257 52 303 0.9 3.5 0.00 0.00 0.00 96
20260506134754 52 220 0.9 6.1 0.00 0.00 0.00 96
20260506134250 52 93 0.0 2.6 0.00 0.00 0.00 96
20260506133748 52 197 0.0 1.7 0.00 0.00 0.00 96
20260506133244 52 82 0.0 5.2 0.00 0.00 0.00 95
20260506132741 52 98 2.6 4.3 0.00 0.00 0.00 95
20260506132238 52 154 1.7 5.2 0.00 0.00 0.00 94
20260506131736 52 182 0.9 4.3 0.00 0.00 0.00 94
20260506131232 52 126 3.5 7.8 0.00 0.00 0.00 94
20260506130729 52 118 1.7 2.6 0.00 0.00 0.00 94
20260506130226 52 101 4.3 8.7 0.00 0.00 0.00 94
20260506125724 53 99 0.9 6.1 0.00 0.00 0.00 94
20260506125222 52 117 3.5 9.6 0.00 0.00 0.00 93
20260506124720 53 100 7.0 8.7 0.00 0.00 0.00 93
20260506124217 53 105 2.6 7.8 0.00 0.00 0.00 93
20260506123714 53 106 3.5 5.2 0.00 0.00 0.00 93
20260506123213 53 112 4.3 6.1 0.00 0.00 0.00 93
20260506122709 53 101 2.6 7.0 0.00 0.00 0.00 93
20260506122207 53 102 1.7 7.0 0.00 0.00 0.00 93
20260506121705 53 108 0.9 3.5 0.00 0.00 0.00 93
20260506121201 53 116 2.6 6.1 0.00 0.00 0.00 93
20260506120659 53 108 2.6 6.1 0.00 0.00 0.00 93